RYS56N LGKV-EPKT

Flight info

Callsign RYS56N
Flight time 1h 44m
Altitude 24000
Route XERIS Y94 REFUS/N0447F380 UN133 ATFIR DCT BUDOP DCT PITOK DCT REDSI DCT MEBAN
Aircraft B738/M-SDE2E3FGHIRWXY/LB1

Departure

Time 2026-04-27 15:32
Airport Kavala Alexander the Great International Airport (LGKV)

Arrival

Time 2026-04-27 17:16
Airport Katowice Wojciech Korfanty International Airport (EPKT)
Time Latitude Longitude Altitude Speed Heading
2026-04-27 15:10 40.92123 24.62363 18 ft 0 kts 325°
2026-04-27 15:22 40.92122 24.62364 18 ft 1 kts 325°
2026-04-27 15:22 40.92102 24.62382 22 ft 4 kts 324°
2026-04-27 15:22 40.92084 24.62399 20 ft 4 kts 317°
2026-04-27 15:23 40.92067 24.62426 18 ft 4 kts 291°
2026-04-27 15:23 40.92064 24.62459 18 ft 4 kts 253°
2026-04-27 15:23 40.92070 24.62477 21 ft 3 kts 236°
2026-04-27 15:23 40.92055 24.62448 21 ft 3 kts 236°
2026-04-27 15:24 40.92053 24.62444 20 ft 0 kts 236°
2026-04-27 15:25 40.92052 24.62442 20 ft 1 kts 236°
2026-04-27 15:26 40.92038 24.62414 18 ft 7 kts 236°
2026-04-27 15:26 40.91996 24.62334 18 ft 14 kts 231°
2026-04-27 15:26 40.91931 24.62236 18 ft 14 kts 219°
2026-04-27 15:26 40.91843 24.62243 18 ft 13 kts 146°
2026-04-27 15:27 40.91768 24.62223 18 ft 13 kts 234°
2026-04-27 15:27 40.91718 24.62127 18 ft 13 kts 234°
2026-04-27 15:27 40.91668 24.62034 18 ft 12 kts 235°
2026-04-27 15:27 40.91614 24.61929 18 ft 16 kts 235°
2026-04-27 15:28 40.91543 24.61796 18 ft 20 kts 235°
2026-04-27 15:28 40.91460 24.61637 18 ft 21 kts 235°
2026-04-27 15:28 40.91376 24.61477 18 ft 21 kts 235°
2026-04-27 15:28 40.91294 24.61323 18 ft 20 kts 235°
2026-04-27 15:29 40.91217 24.61172 18 ft 20 kts 235°
2026-04-27 15:29 40.91142 24.61029 18 ft 19 kts 235°
2026-04-27 15:29 40.91068 24.60888 18 ft 18 kts 236°
2026-04-27 15:29 40.90997 24.60753 19 ft 18 kts 235°
2026-04-27 15:30 40.90929 24.60621 19 ft 17 kts 235°
2026-04-27 15:30 40.90863 24.60495 19 ft 16 kts 236°
2026-04-27 15:30 40.90792 24.60383 19 ft 16 kts 199°
2026-04-27 15:30 40.90699 24.60445 18 ft 15 kts 145°
2026-04-27 15:31 40.90639 24.60521 19 ft 8 kts 88°
2026-04-27 15:31 40.90667 24.60572 19 ft 0 kts 55°
2026-04-27 15:31 40.90699 24.60631 20 ft 31 kts 55°
2026-04-27 15:32 40.90952 24.61115 18 ft 95 kts 56°
2026-04-27 15:32 40.91433 24.62040 24 ft 146 kts 55°
2026-04-27 15:32 40.92073 24.63206 284 ft 166 kts 57°
2026-04-27 15:32 40.92765 24.64473 822 ft 172 kts 57°
2026-04-27 15:33 40.93465 24.65792 1438 ft 182 kts 58°
2026-04-27 15:33 40.94216 24.67252 2102 ft 199 kts 57°
2026-04-27 15:33 40.94906 24.68854 2799 ft 203 kts 73°
2026-04-27 15:33 40.94871 24.70719 3453 ft 208 kts 111°
2026-04-27 15:34 40.93935 24.72211 4056 ft 223 kts 147°
2026-04-27 15:34 40.92386 24.72736 4658 ft 241 kts 183°
2026-04-27 15:34 40.90789 24.72045 5409 ft 248 kts 214°
2026-04-27 15:34 40.89620 24.70482 6465 ft 235 kts 243°
2026-04-27 15:35 40.89248 24.68493 7320 ft 225 kts 278°
2026-04-27 15:35 40.89726 24.66526 8054 ft 226 kts 296°
2026-04-27 15:35 40.90361 24.64645 8942 ft 225 kts 292°
2026-04-27 15:35 40.90915 24.62692 9715 ft 228 kts 291°
2026-04-27 15:36 40.91545 24.60742 10365 ft 236 kts 300°
2026-04-27 15:36 40.92479 24.58814 10623 ft 262 kts 304°
2026-04-27 15:36 40.93570 24.56735 10835 ft 288 kts 304°
2026-04-27 15:36 40.94774 24.54457 11027 ft 314 kts 304°
2026-04-27 15:37 40.96067 24.51993 11246 ft 337 kts 304°
2026-04-27 15:37 40.97402 24.49422 11765 ft 347 kts 304°
2026-04-27 15:37 40.98774 24.46761 12507 ft 351 kts 303°
2026-04-27 15:37 41.00158 24.44061 13231 ft 356 kts 303°
2026-04-27 15:38 41.01558 24.41319 13951 ft 361 kts 302°
2026-04-27 15:38 41.02972 24.38542 14635 ft 365 kts 302°
2026-04-27 15:38 41.04388 24.35757 15404 ft 365 kts 302°
2026-04-27 15:38 41.05812 24.32954 16114 ft 368 kts 302°
2026-04-27 15:39 41.07245 24.30128 16800 ft 371 kts 302°
2026-04-27 15:39 41.08724 24.27289 17442 ft 376 kts 305°
2026-04-27 15:39 41.10347 24.24608 18109 ft 379 kts 308°
2026-04-27 15:39 41.12070 24.21940 18739 ft 382 kts 309°
2026-04-27 15:40 41.13822 24.19261 19312 ft 385 kts 309°
2026-04-27 15:40 41.15581 24.16557 19882 ft 388 kts 309°
2026-04-27 15:40 41.17342 24.13821 20452 ft 391 kts 309°
2026-04-27 15:40 41.19113 24.11045 21011 ft 394 kts 308°
2026-04-27 15:41 41.20884 24.08253 21559 ft 397 kts 308°
2026-04-27 15:41 41.22640 24.05473 22084 ft 400 kts 309°
2026-04-27 15:41 41.24440 24.02617 22556 ft 404 kts 309°
2026-04-27 15:41 41.26260 23.99728 22993 ft 410 kts 310°
2026-04-27 15:42 41.28099 23.96804 23435 ft 414 kts 310°
2026-04-27 15:42 41.29954 23.93854 23905 ft 417 kts 310°
2026-04-27 15:42 41.31819 23.90884 24364 ft 418 kts 310°
2026-04-27 15:42 41.33683 23.87913 24837 ft 419 kts 310°
2026-04-27 15:43 41.35533 23.84963 25268 ft 420 kts 310°
2026-04-27 15:43 41.37411 23.81970 25674 ft 422 kts 311°
2026-04-27 15:43 41.39525 23.79250 26051 ft 425 kts 322°
2026-04-27 15:43 41.42007 23.77107 26460 ft 427 kts 331°
2026-04-27 15:44 41.44738 23.75545 26876 ft 429 kts 341°
2026-04-27 15:44 41.47605 23.74386 27246 ft 432 kts 342°
2026-04-27 15:44 41.50507 23.73278 27619 ft 434 kts 343°
2026-04-27 15:44 41.53422 23.72180 28005 ft 435 kts 343°
2026-04-27 15:45 41.56340 23.71073 28369 ft 437 kts 342°
2026-04-27 15:45 41.59233 23.69962 28695 ft 439 kts 342°
2026-04-27 15:45 41.62169 23.68820 29040 ft 440 kts 342°
2026-04-27 15:45 41.65123 23.67660 29358 ft 442 kts 342°
2026-04-27 15:46 41.68086 23.66490 29710 ft 443 kts 342°
2026-04-27 15:46 41.71047 23.65316 30178 ft 442 kts 342°
2026-04-27 15:46 41.73993 23.64146 30655 ft 438 kts 341°
2026-04-27 15:46 41.76873 23.63001 31066 ft 436 kts 341°
2026-04-27 15:47 41.79783 23.61843 31386 ft 436 kts 341°
2026-04-27 15:47 41.82699 23.60681 31726 ft 436 kts 341°
2026-04-27 15:47 41.85608 23.59520 32098 ft 434 kts 341°
2026-04-27 15:47 41.88500 23.58366 32502 ft 432 kts 341°
2026-04-27 15:48 41.91373 23.57219 32864 ft 431 kts 341°
2026-04-27 15:48 41.94254 23.56067 33194 ft 431 kts 341°
2026-04-27 15:48 41.97122 23.54919 33564 ft 429 kts 341°
2026-04-27 15:49 42.02821 23.52636 34260 ft 426 kts 341°
2026-04-27 15:49 42.05666 23.51494 34485 ft 427 kts 340°
2026-04-27 15:49 42.08480 23.50363 34735 ft 427 kts 340°
2026-04-27 15:49 42.11331 23.49217 34994 ft 426 kts 340°
2026-04-27 15:50 42.14178 23.48071 35270 ft 426 kts 340°
2026-04-27 15:50 42.17009 23.46931 35526 ft 425 kts 340°
2026-04-27 15:50 42.19851 23.45785 35726 ft 426 kts 340°
2026-04-27 15:50 42.22697 23.44636 35951 ft 426 kts 340°
2026-04-27 15:51 42.25536 23.43489 36217 ft 425 kts 340°
2026-04-27 15:51 42.28377 23.42341 36461 ft 425 kts 340°
2026-04-27 15:51 42.31220 23.41190 36634 ft 426 kts 340°
2026-04-27 15:51 42.34031 23.40051 36833 ft 427 kts 340°
2026-04-27 15:52 42.36880 23.38896 37080 ft 426 kts 340°
2026-04-27 15:52 42.39716 23.37745 37312 ft 426 kts 340°
2026-04-27 15:52 42.42554 23.36593 37503 ft 426 kts 340°
2026-04-27 15:52 42.45394 23.35438 37687 ft 426 kts 340°
2026-04-27 15:53 42.48242 23.34279 37895 ft 426 kts 340°
2026-04-27 15:53 42.51081 23.33122 38102 ft 426 kts 340°
2026-04-27 15:53 42.53927 23.31961 38121 ft 429 kts 340°
2026-04-27 15:54 42.59650 23.29623 38133 ft 428 kts 340°
2026-04-27 15:54 42.65305 23.27312 38122 ft 426 kts 340°
2026-04-27 15:55 42.70958 23.24995 38126 ft 423 kts 340°
2026-04-27 15:55 42.76588 23.22683 38132 ft 421 kts 340°
2026-04-27 15:56 42.82204 23.20372 38138 ft 421 kts 340°
2026-04-27 15:56 42.87813 23.18059 38130 ft 421 kts 340°
2026-04-27 15:57 42.93392 23.15754 38132 ft 421 kts 340°
2026-04-27 15:57 42.99013 23.13428 38150 ft 422 kts 340°
2026-04-27 15:58 43.04648 23.11091 38131 ft 423 kts 340°
2026-04-27 15:58 43.10274 23.08755 38142 ft 422 kts 340°
2026-04-27 15:59 43.15871 23.06425 38131 ft 423 kts 340°
2026-04-27 15:59 43.21511 23.04073 38143 ft 424 kts 340°
2026-04-27 16:00 43.27163 23.01711 38141 ft 425 kts 340°
2026-04-27 16:00 43.32825 22.99341 38143 ft 425 kts 340°
2026-04-27 16:01 43.38502 22.96960 38131 ft 426 kts 340°
2026-04-27 16:01 43.44144 22.94589 38142 ft 426 kts 340°
2026-04-27 16:02 43.49821 22.92199 38139 ft 426 kts 340°
2026-04-27 16:02 43.55491 22.89807 38139 ft 426 kts 340°
2026-04-27 16:03 43.61172 22.87405 38136 ft 425 kts 340°
2026-04-27 16:03 43.66834 22.85006 38143 ft 425 kts 340°
2026-04-27 16:04 43.72465 22.82616 38143 ft 425 kts 340°
2026-04-27 16:04 43.78120 22.80211 38142 ft 424 kts 340°
2026-04-27 16:05 43.83766 22.77806 38141 ft 424 kts 340°
2026-04-27 16:05 43.89371 22.75412 38157 ft 424 kts 340°
2026-04-27 16:06 43.95025 22.72994 38139 ft 424 kts 340°
2026-04-27 16:06 44.00668 22.70575 38142 ft 424 kts 340°
2026-04-27 16:07 44.06315 22.68149 38146 ft 424 kts 340°
2026-04-27 16:07 44.11913 22.65740 38155 ft 424 kts 340°
2026-04-27 16:08 44.17550 22.63310 38151 ft 424 kts 340°
2026-04-27 16:08 44.23190 22.60873 38145 ft 423 kts 340°
2026-04-27 16:09 44.28820 22.58435 38162 ft 423 kts 340°
2026-04-27 16:09 44.37264 22.54770 38140 ft 423 kts 340°
2026-04-27 16:10 44.48474 22.49887 38158 ft 423 kts 340°
2026-04-27 16:11 44.55994 22.46601 38153 ft 423 kts 340°
2026-04-27 16:12 44.64387 22.42922 38154 ft 422 kts 340°
2026-04-27 16:13 44.72780 22.39232 38154 ft 423 kts 340°
2026-04-27 16:13 44.81212 22.35514 38144 ft 423 kts 340°
2026-04-27 16:14 44.92402 22.30562 38142 ft 422 kts 340°
2026-04-27 16:15 45.03627 22.25574 38147 ft 421 kts 340°
2026-04-27 16:16 45.14783 22.20596 38456 ft 421 kts 340°
2026-04-27 16:17 45.20347 22.18107 38928 ft 418 kts 340°
2026-04-27 16:17 45.25959 22.15588 38456 ft 425 kts 340°
2026-04-27 16:18 45.31551 22.13076 38158 ft 416 kts 340°
2026-04-27 16:18 45.37076 22.10589 38164 ft 417 kts 340°
2026-04-27 16:19 45.42648 22.08073 38155 ft 421 kts 340°
2026-04-27 16:20 45.53864 22.02994 38148 ft 426 kts 340°
2026-04-27 16:21 45.62346 21.99141 38137 ft 426 kts 340°
2026-04-27 16:22 45.73610 21.94005 38141 ft 422 kts 340°
2026-04-27 16:22 45.81939 21.90193 38139 ft 419 kts 340°
2026-04-27 16:23 45.90225 21.86389 38152 ft 415 kts 339°
2026-04-27 16:24 45.95729 21.83855 38139 ft 414 kts 339°
2026-04-27 16:25 46.06688 21.78793 38150 ft 413 kts 339°
2026-04-27 16:26 46.17609 21.73727 38160 ft 414 kts 339°
2026-04-27 16:27 46.28606 21.68606 38154 ft 416 kts 339°
2026-04-27 16:28 46.42424 21.62140 38158 ft 418 kts 339°
2026-04-27 16:29 46.56227 21.55647 38160 ft 417 kts 339°
2026-04-27 16:30 46.67272 21.50426 38167 ft 416 kts 339°
2026-04-27 16:31 46.80358 21.42091 38163 ft 409 kts 332°
2026-04-27 16:32 46.88086 21.36856 38165 ft 407 kts 333°
2026-04-27 16:33 46.95799 21.31677 38167 ft 406 kts 333°
2026-04-27 16:33 47.00905 21.28245 38168 ft 405 kts 333°
2026-04-27 16:34 47.06039 21.24787 38170 ft 405 kts 333°
2026-04-27 16:34 47.11166 21.21326 38176 ft 406 kts 333°
2026-04-27 16:35 47.16302 21.17852 38172 ft 406 kts 333°
2026-04-27 16:36 47.23986 21.12641 38174 ft 407 kts 333°
2026-04-27 16:36 47.29132 21.09141 38169 ft 407 kts 333°
2026-04-27 16:37 47.34279 21.05633 38197 ft 407 kts 333°
2026-04-27 16:37 47.39431 21.02114 38179 ft 408 kts 333°
2026-04-27 16:38 47.44587 20.98586 38172 ft 408 kts 333°
2026-04-27 16:38 47.49715 20.95068 38172 ft 408 kts 333°
2026-04-27 16:39 47.54870 20.91524 38172 ft 408 kts 332°
2026-04-27 16:39 47.60032 20.87968 38192 ft 408 kts 332°
2026-04-27 16:40 47.65169 20.84421 38176 ft 409 kts 332°
2026-04-27 16:40 47.70322 20.80855 38168 ft 409 kts 332°
2026-04-27 16:41 47.75481 20.77278 38173 ft 409 kts 332°
2026-04-27 16:41 47.80638 20.73694 38164 ft 409 kts 332°
2026-04-27 16:42 47.85794 20.70102 38176 ft 409 kts 332°
2026-04-27 16:42 47.90914 20.66528 38164 ft 409 kts 332°
2026-04-27 16:43 47.96068 20.62922 38159 ft 408 kts 332°
2026-04-27 16:43 48.01210 20.59317 38152 ft 407 kts 332°
2026-04-27 16:44 48.06338 20.55713 38159 ft 407 kts 332°
2026-04-27 16:44 48.11433 20.52125 38168 ft 407 kts 332°
2026-04-27 16:45 48.16552 20.48512 38148 ft 406 kts 332°
2026-04-27 16:45 48.21665 20.44894 38147 ft 405 kts 332°
2026-04-27 16:46 48.26753 20.41287 38145 ft 404 kts 332°
2026-04-27 16:46 48.31834 20.37676 38142 ft 403 kts 332°
2026-04-27 16:47 48.36814 20.33914 38141 ft 402 kts 330°
2026-04-27 16:47 48.41751 20.29941 38147 ft 402 kts 329°
2026-04-27 16:48 48.46692 20.25965 38126 ft 402 kts 330°
2026-04-27 16:48 48.51624 20.22018 38131 ft 401 kts 330°
2026-04-27 16:49 48.59037 20.16093 38139 ft 402 kts 330°
2026-04-27 16:49 48.63958 20.12151 38162 ft 403 kts 330°
2026-04-27 16:50 48.68931 20.08157 38141 ft 404 kts 330°
2026-04-27 16:50 48.73926 20.04136 37743 ft 409 kts 330°
2026-04-27 16:51 48.76435 20.02114 37471 ft 406 kts 330°
2026-04-27 16:51 48.78911 20.00117 37191 ft 399 kts 330°
2026-04-27 16:51 48.81349 19.98149 36929 ft 396 kts 330°
2026-04-27 16:51 48.83753 19.96204 36671 ft 396 kts 330°
2026-04-27 16:52 48.86185 19.94235 36429 ft 395 kts 330°
2026-04-27 16:52 48.88615 19.92265 36166 ft 394 kts 330°
2026-04-27 16:52 48.91031 19.90303 35931 ft 393 kts 330°
2026-04-27 16:52 48.93441 19.88345 35702 ft 391 kts 330°
2026-04-27 16:53 48.95837 19.86396 35460 ft 390 kts 330°
2026-04-27 16:53 48.98230 19.84447 35214 ft 388 kts 330°
2026-04-27 16:53 49.00578 19.82533 34977 ft 387 kts 330°
2026-04-27 16:53 49.02947 19.80600 34737 ft 385 kts 330°
2026-04-27 16:54 49.05310 19.78669 34498 ft 383 kts 330°
2026-04-27 16:54 49.07655 19.76752 34249 ft 381 kts 330°
2026-04-27 16:54 49.09987 19.74842 33983 ft 379 kts 330°
2026-04-27 16:54 49.12313 19.72935 33710 ft 378 kts 330°
2026-04-27 16:55 49.14626 19.71038 33422 ft 377 kts 330°
2026-04-27 16:55 49.16931 19.69145 32805 ft 373 kts 330°
2026-04-27 16:55 49.19199 19.67282 31773 ft 376 kts 330°
2026-04-27 16:55 49.21628 19.65698 30769 ft 382 kts 339°
2026-04-27 16:56 49.24206 19.64675 29907 ft 383 kts 344°
2026-04-27 16:56 49.26836 19.64056 29076 ft 382 kts 351°
2026-04-27 16:56 49.29501 19.64023 28274 ft 381 kts 356°
2026-04-27 16:56 49.32139 19.64146 27469 ft 377 kts 356°
2026-04-27 16:57 49.34721 19.64277 26687 ft 374 kts 356°
2026-04-27 16:57 49.37314 19.64396 25908 ft 372 kts 356°
2026-04-27 16:57 49.39890 19.64498 25154 ft 369 kts 356°
2026-04-27 16:57 49.42456 19.64593 24422 ft 367 kts 356°
2026-04-27 16:58 49.44994 19.64681 23702 ft 364 kts 355°
2026-04-27 16:58 49.47505 19.64501 22882 ft 359 kts 351°
2026-04-27 16:58 49.49973 19.64154 22135 ft 354 kts 351°
2026-04-27 16:58 49.52402 19.63788 21548 ft 347 kts 350°
2026-04-27 16:59 49.54783 19.63425 21031 ft 339 kts 350°
2026-04-27 16:59 49.57114 19.63075 20553 ft 332 kts 351°
2026-04-27 16:59 49.58620 19.62851 20251 ft 327 kts 351°
2026-04-27 16:59 49.61639 19.62404 19661 ft 326 kts 351°
2026-04-27 17:00 49.64651 19.61960 19070 ft 331 kts 351°
2026-04-27 17:00 49.67769 19.61501 18432 ft 339 kts 351°
2026-04-27 17:00 49.70126 19.61158 17898 ft 338 kts 351°
2026-04-27 17:01 49.72474 19.60818 17299 ft 339 kts 351°
2026-04-27 17:01 49.74798 19.60482 16787 ft 338 kts 351°
2026-04-27 17:01 49.77130 19.60144 16298 ft 336 kts 352°
2026-04-27 17:01 49.79465 19.59807 15806 ft 335 kts 352°
2026-04-27 17:02 49.81777 19.59472 15334 ft 333 kts 352°
2026-04-27 17:02 49.84081 19.59138 14861 ft 331 kts 352°
2026-04-27 17:02 49.86372 19.58805 14404 ft 329 kts 352°
2026-04-27 17:02 49.88650 19.58474 13948 ft 328 kts 352°
2026-04-27 17:03 49.90892 19.58147 13457 ft 326 kts 352°
2026-04-27 17:03 49.93174 19.57814 12965 ft 324 kts 352°
2026-04-27 17:03 49.95383 19.57491 12507 ft 322 kts 352°
2026-04-27 17:03 49.97606 19.57166 12064 ft 319 kts 352°
2026-04-27 17:04 49.99808 19.56844 11611 ft 317 kts 352°
2026-04-27 17:04 50.01998 19.56524 11172 ft 315 kts 352°
2026-04-27 17:04 50.04173 19.56205 10739 ft 313 kts 353°
2026-04-27 17:04 50.06334 19.55888 10387 ft 309 kts 353°
2026-04-27 17:05 50.08429 19.55582 10267 ft 297 kts 353°
2026-04-27 17:05 50.10455 19.55285 10124 ft 287 kts 353°
2026-04-27 17:05 50.12417 19.54998 9991 ft 278 kts 353°
2026-04-27 17:05 50.14307 19.54720 9712 ft 269 kts 353°
2026-04-27 17:06 50.16151 19.54448 9381 ft 263 kts 352°
2026-04-27 17:06 50.17972 19.54179 9049 ft 262 kts 352°
2026-04-27 17:06 50.19785 19.53910 8732 ft 261 kts 352°
2026-04-27 17:06 50.21569 19.53646 8429 ft 260 kts 352°
2026-04-27 17:07 50.23368 19.53379 8126 ft 259 kts 352°
2026-04-27 17:07 50.25159 19.53114 7819 ft 258 kts 352°
2026-04-27 17:07 50.26943 19.52850 7515 ft 257 kts 352°
2026-04-27 17:07 50.28719 19.52587 7216 ft 256 kts 352°
2026-04-27 17:08 50.30496 19.52323 6911 ft 256 kts 352°
2026-04-27 17:08 50.32264 19.52062 6687 ft 252 kts 353°
2026-04-27 17:08 50.33987 19.51807 6567 ft 245 kts 353°
2026-04-27 17:08 50.35636 19.51562 6448 ft 237 kts 353°
2026-04-27 17:09 50.37258 19.51322 6338 ft 230 kts 353°
2026-04-27 17:09 50.38828 19.51103 6173 ft 225 kts 355°
2026-04-27 17:09 50.40384 19.51093 5997 ft 219 kts 359°
2026-04-27 17:09 50.41885 19.51136 5760 ft 212 kts 359°
2026-04-27 17:10 50.43330 19.51175 5532 ft 205 kts 359°
2026-04-27 17:10 50.44729 19.51202 5305 ft 203 kts 356°
2026-04-27 17:10 50.46053 19.50539 5065 ft 202 kts 322°
2026-04-27 17:10 50.46970 19.48923 4962 ft 199 kts 301°
2026-04-27 17:11 50.47415 19.46877 4820 ft 201 kts 278°
2026-04-27 17:11 50.47526 19.42436 4573 ft 205 kts 275°
2026-04-27 17:11 50.47569 19.40191 4440 ft 206 kts 273°
2026-04-27 17:12 50.47579 19.35857 4144 ft 188 kts 272°
2026-04-27 17:12 50.47577 19.33878 4027 ft 176 kts 272°
2026-04-27 17:12 50.47577 19.31996 3815 ft 173 kts 273°
2026-04-27 17:13 50.47577 19.30119 3581 ft 172 kts 273°
2026-04-27 17:13 50.47577 19.28240 3354 ft 173 kts 273°
2026-04-27 17:13 50.47578 19.26349 3118 ft 174 kts 273°
2026-04-27 17:13 50.47579 19.24449 2873 ft 172 kts 273°
2026-04-27 17:14 50.47579 19.22627 2640 ft 160 kts 272°
2026-04-27 17:14 50.47580 19.20961 2411 ft 148 kts 274°
2026-04-27 17:14 50.47573 19.19391 2167 ft 141 kts 272°
2026-04-27 17:14 50.47560 19.17855 1969 ft 140 kts 273°
2026-04-27 17:15 50.47563 19.16351 1804 ft 140 kts 274°
2026-04-27 17:15 50.47572 19.14825 1635 ft 140 kts 275°
2026-04-27 17:15 50.47595 19.13279 1427 ft 142 kts 274°
2026-04-27 17:15 50.47592 19.11749 1247 ft 138 kts 273°
2026-04-27 17:16 50.47595 19.10242 1044 ft 137 kts 273°
2026-04-27 17:16 50.47598 19.08846 999 ft 105 kts 270°
2026-04-27 17:16 50.47600 19.08034 996 ft 55 kts 270°
2026-04-27 17:16 50.47601 19.07472 999 ft 47 kts 270°
2026-04-27 17:17 50.47584 19.07158 1001 ft 26 kts 252°
2026-04-27 17:17 50.47510 19.06913 999 ft 19 kts 240°
2026-04-27 17:17 50.47497 19.06878 1004 ft 0 kts 240°
2026-04-27 17:18 50.47493 19.06867 1004 ft 4 kts 240°
2026-04-27 17:18 50.47464 19.06788 999 ft 13 kts 240°
2026-04-27 17:18 50.47400 19.06642 997 ft 19 kts 210°
2026-04-27 17:18 50.47293 19.06626 999 ft 14 kts 181°
2026-04-27 17:19 50.47235 19.06716 1002 ft 14 kts 89°
2026-04-27 17:19 50.47236 19.06861 997 ft 13 kts 90°
2026-04-27 17:19 50.47235 19.07002 1002 ft 13 kts 90°
2026-04-27 17:19 50.47235 19.07138 1002 ft 12 kts 90°
2026-04-27 17:20 50.47235 19.07257 1000 ft 5 kts 90°
2026-04-27 17:20 50.47208 19.07281 1004 ft 5 kts 194°
2026-04-27 17:20 50.47183 19.07278 1000 ft 1 kts 179°
2026-04-27 17:20 50.47179 19.07278 999 ft 0 kts 179°